Ithaca, NY

4:42 AM EST on February 06, 2016 (GMT -0500)
Tompkins County

Weather History for KITH - April, 2013

Change the Weather History Date:

Monday, April 29, 2013

  Actual Average Record
Temperature  
Mean Temperature 52 °F -  
Max Temperature 55 °F 59 °F 89 °F (1990)
Min Temperature 50 °F 37 °F 6 °F (2011)
Degree Days  
Heating Degree Days 12    
Growing Degree Days 2 (Base 50)    
Moisture  
Dew Point 45 °F    
Average Humidity 74    
Maximum Humidity 88    
Minimum Humidity 58    
Precipitation  
Precipitation 0.00 in - - ()
Sea Level Pressure  
Sea Level Pressure 30.10 in    
Wind  
Wind Speed 12 mph (SSE)    
Max Wind Speed 17 mph    
Max Gust Speed 24 mph    
Visibility 10 miles    
Events Rain    
Averages and records for this station are not official NWS values.
T = Trace of Precipitation, MM = Missing Value Source: NWS Daily Summary

Daily Weather History Graph

Daily Weather History Graph

Search for Another Location

Airport or City:

Trip Planner

Search our weather history database for the weather conditions in past years. The results will help you decide how hot, cold, wet, or windy it might be!

Date:

Astronomy

Apr. 29, 2013 Rise Set
Actual Time 6:03 AM EDT 8:03 PM EDT
Civil Twilight 5:32 AM EDT 8:34 PM EDT
Nautical Twilight 4:55 AM EDT 9:11 PM EDT
Astronomical Twilight 4:14 AM EDT 9:52 PM EDT
Moon No Moon Rise 9:19 AM EDT (4/29)
Length of Visible Light 15h 01m
Length of Day
14h 00m
Waning Gibbous, 80% of the Moon is Illuminated
Apr 29
Waning Gibbous
May 2
Last Quarter
May 9
New
May 18
First Quarter
May 25
Full

Hourly Weather History & Observations

Time (EDT) Temp. Dew Point Humidity Pressure Visibility Wind Dir Wind Speed Gust Speed Precip Events Conditions
12:56 AM 50.0 °F 45.0 °F 83% 30.12 in 10.0 mi SE 12.7 mph 18.4 mph 0.00 in   Overcast
1:56 AM 50.9 °F 43.9 °F 77% 30.10 in 10.0 mi SE 12.7 mph 19.6 mph N/A   Overcast
2:56 AM 50.0 °F 41.9 °F 74% 30.09 in 10.0 mi SSE 12.7 mph - N/A   Overcast
3:56 AM 50.0 °F 41.0 °F 71% 30.08 in 10.0 mi SE 11.5 mph - N/A   Overcast
4:56 AM 50.9 °F 37.9 °F 61% 30.07 in 10.0 mi SSE 15.0 mph - N/A   Overcast
5:56 AM 50.0 °F 36.9 °F 61% 30.08 in 10.0 mi SSE 10.4 mph - N/A   Overcast
6:16 AM 50.0 °F 35.6 °F 58% 30.08 in 10.0 mi SSE 13.8 mph 17.3 mph N/A   Mostly Cloudy
6:56 AM 50.0 °F 36.9 °F 61% 30.09 in 10.0 mi SSE 11.5 mph - N/A   Mostly Cloudy
7:56 AM 52.0 °F 37.9 °F 59% 30.09 in 10.0 mi SE 8.1 mph - N/A   Mostly Cloudy
8:56 AM 52.0 °F 41.0 °F 66% 30.10 in 10.0 mi South 11.5 mph 17.3 mph 0.00 in   Mostly Cloudy
9:56 AM 54.0 °F 43.0 °F 66% 30.11 in 10.0 mi South 13.8 mph 21.9 mph N/A   Mostly Cloudy
10:56 AM 54.9 °F 45.0 °F 69% 30.11 in 10.0 mi SSE 16.1 mph - N/A   Mostly Cloudy
11:56 AM 54.9 °F 46.9 °F 75% 30.12 in 10.0 mi South 17.3 mph 24.2 mph 0.00 in   Overcast
12:56 PM 54.9 °F 47.8 °F 77% 30.11 in 10.0 mi South 13.8 mph 23.0 mph 0.00 in Rain Light Rain
1:56 PM 54.0 °F 47.8 °F 80% 30.10 in 10.0 mi SSE 13.8 mph 20.7 mph 0.00 in   Overcast
2:56 PM 55.9 °F 48.9 °F 77% 30.09 in 10.0 mi SSE 13.8 mph - 0.00 in   Overcast
3:56 PM 54.9 °F 48.9 °F 80% 30.09 in 10.0 mi SSE 12.7 mph - 0.00 in   Overcast
4:56 PM 55.9 °F 47.8 °F 74% 30.09 in 10.0 mi SSE 11.5 mph 18.4 mph N/A   Overcast
5:56 PM 55.9 °F 47.8 °F 74% 30.09 in 10.0 mi SSE 13.8 mph 19.6 mph N/A   Overcast
6:56 PM 54.9 °F 48.9 °F 80% 30.10 in 10.0 mi SE 16.1 mph - N/A   Mostly Cloudy
7:56 PM 52.9 °F 47.8 °F 83% 30.11 in 10.0 mi SSE 6.9 mph - N/A   Overcast
8:56 PM 52.0 °F 47.8 °F 86% 30.13 in 10.0 mi SE 6.9 mph - N/A   Overcast
9:56 PM 52.0 °F 47.8 °F 86% 30.14 in 10.0 mi SE 10.4 mph - N/A   Overcast
10:56 PM 52.0 °F 47.8 °F 86% 30.14 in 10.0 mi SSE 10.4 mph - N/A   Overcast
11:10 PM 51.8 °F 48.2 °F 88% 30.13 in 10.0 mi SSE 12.7 mph 17.3 mph N/A   Overcast
11:56 PM 52.9 °F 47.8 °F 83% 30.15 in 10.0 mi SSE 9.2 mph - N/A   Overcast